Home > Weather > Kuwait City > Past weeks

Flag for Kuwait Past Weather in Kuwait City, Kuwait — Yesterday and Last 2 Weeks

Now
86 °F

Clear.


Feels Like: 83 °F
Forecast: 86 / 102 °F
Wind: 9 mph from South

Location: Kuwait International Airport

Current Time: May 28, 2016 at 3:08:43 AM

Latest Report: May 28, 2016 at 2:00 AM


Visibility: 10 mi

Pressure: 29.65 "Hg

Humidity: 25%

Dew Point: 46 °F

Location of Kuwait CityLocation

Past Weather in Kuwait City — Graph

°F

Kuwait City Temperature Yesterday

Maximum temperature yesterday: 104 °F (at 1:00 PM)
Minimum temperature yesterday: 73 °F (at 4:00 AM)
Average temperature yesterday: 91 °F

High & Low Weather Summary for the Past Weeks

 TemperatureHumidityPressure
High113 °F (May 16, 3:00 PM)48% (May 18, 2:00 AM)29.89 "Hg (May 18, 2:00 AM)
Low73 °F (May 14, 5:00 AM)6% (May 24, 11:00 AM)29.53 "Hg (May 19, 5:00 PM)
Average95 °F18%29.71 "Hg
* Reported May 13 2:00 AM — May 28 2:00 AM, Kuwait City, Weather by CustomWeather, © 2016

Note: Actual official high and low records may vary slightly from our data, if they occured in-between our weather recording intervals... More about our weather records

Advertising

Kuwait City Weather History for the Previous 24 Hours

Scroll right to see more
 ConditionsComfort  
Time TempWeatherWind HumidityBarometerVisibility
2:00 AM
Sat, May 28
86 °FClear.9 mph25%29.65 "Hg10 mi
1:00 AM88 °FClear.8 mph22%29.65 "Hg10 mi
12:00 AM88 °FClear.7 mph24%29.65 "Hg10 mi
11:00 PM
Fri, May 27
88 °FClear.6 mph22%29.68 "Hg10 mi
10:00 PM91 °FClear.7 mph17%29.68 "Hg10 mi
9:00 PM93 °FClear.9 mph19%29.68 "Hg10 mi
8:00 PM93 °FClear.9 mph20%29.68 "Hg10 mi
7:00 PM95 °FClear.12 mph18%29.68 "Hg10 mi
6:00 PM97 °FSunny.13 mph16%29.68 "Hg10 mi
5:00 PM100 °FSunny.10 mph11%29.68 "Hg10 mi
3:59 PM102 °FSunny.13 mph10%29.68 "Hg10 mi
3:00 PM102 °FSunny.12 mph10%29.71 "Hg10 mi
2:00 PM102 °FSunny.8 mph11%29.71 "Hg10 mi
1:00 PM104 °FSunny.8 mph11%29.71 "Hg10 mi
12:00 PM102 °FSunny.6 mph11%29.74 "Hg10 mi
11:00 AM100 °FSunny.3 mph12%29.74 "Hg10 mi
10:00 AM99 °FSunny.3 mph14%29.74 "Hg10 mi
9:00 AM95 °FSunny.3 mph15%29.74 "Hg10 mi
8:00 AM91 °FSunny.3 mph17%29.74 "Hg4 mi
7:00 AM84 °FSunny.3 mph20%29.74 "Hg4 mi
6:00 AM79 °FSunny.3 mph24%29.74 "Hg10 mi
5:00 AM75 °FSunny.5 mph27%29.71 "Hg10 mi
4:00 AM73 °FClear.6 mph27%29.71 "Hg10 mi
3:00 AM75 °FClear.5 mph27%29.71 "Hg10 mi
Weather by CustomWeather, © 2016

See weather overviewHow to use our weather pages